Location: Unspecified
(52.4361°N, 0.0000°E)
Time: 11:16:21
(UTC+00:00)

NOAA 19 - Visible Passes

Search period start: 17 August 2019 00:00
Search period end: 27 August 2019 00:00
Orbit: 841 x 861 km, 99.2° (Epoch: 16 August)

Date Brightness Start Highest point End Pass type
(mag) Time Alt. Az. Time Alt. Az. Time Alt. Az.
22 Aug 7.9 04:16:37 10° NE 04:20:32 19° E 04:24:25 10° SE visible
23 Aug 8.0 04:05:24 10° NE 04:08:41 16° E 04:11:57 10° ESE visible
24 Aug 8.2 03:54:26 10° ENE 03:56:48 13° E 03:59:10 10° ESE visible
